Wind_Speed
41 42 43 44 46 47 49 50 52 54 57 57 57 59 59 60 61 63 64 64 65 65 66 66 66 67 66 64 62 60 59 57 56 55 55 55 55 55
45 46 47 47 49 50 52 54 56 58 60 61 62 62 63 64 64 65 65 64 64 64 65 64 64 62 60 57 56 54 53 52 50 49 49 50 50 51
48 49 49 51 52 54 56 57 60 61 63 64 65 65 65 65 65 64 63 62 63 62 61 60 58 55 53 51 50 49 47 47 46 46 46 47 47 48
52 53 53 55 56 58 59 60 61 62 64 65 64 64 64 63 62 60 60 60 60 58 56 54 52 50 48 46 44 44 44 44 44 44 44 45 45 45
55 57 57 57 58 59 60 61 62 62 63 62 62 62 60 59 58 57 57 56 55 53 51 49 47 44 42 41 41 41 42 43 43 43 43 43 43 43
58 59 59 60 60 60 61 62 62 62 61 61 59 58 57 55 54 53 53 51 50 49 47 44 41 40 39 39 39 40 41 42 42 42 42 42 42 42
60 61 60 60 60 61 61 61 61 60 58 56 55 53 52 51 50 49 48 47 45 43 40 39 38 38 38 39 39 40 40 41 41 41 41 41 41 40
61 62 62 61 60 60 59 57 56 54 53 51 49 48 47 46 45 44 43 41 38 37 36 36 37 38 38 39 38 39 39 40 40 41 41 40 40 39
61 61 60 59 58 56 54 51 49 46 45 43 42 41 40 40 39 38 36 35 34 33 33 34 35 36 37 37 37 38 38 38 39 39 39 38 38 37
58 57 57 55 53 50 46 44 41 38 36 35 34 33 33 33 32 31 30 30 31 31 31 32 33 34 36 36 37 37 37 36 36 36 35 35 34 33
52 50 48 45 42 39 36 34 31 30 29 28 27 27 26 26 25 26 26 26 28 29 30 31 31 31 33 34 35 34 34 33 33 32 32 30 29 27
41 39 36 33 30 29 27 25 24 23 22 21 21 20 20 21 21 22 23 24 26 27 27 28 28 28 28 30 30 30 31 30 29 29 27 26 24 22
29 26 24 22 21 19 18 17 17 16 15 15 15 15 16 17 18 20 21 22 23 24 24 24 25 26 26 26 26 27 27 27 27 26 24 21 19 16
17 15 14 13 12 11 11 10 10 9 9 10 11 12 14 16 17 19 20 21 22 22 22 23 24 24 24 24 24 25 25 25 24 22 19 17 15 12
7 6 6 5 5 5 5 5 5 6 7 8 10 11 13 15 16 18 20 20 20 20 21 23 23 23 23 23 24 24 24 23 22 20 17 15 13 10
4 4 5 5 5 5 5 6 6 7 7 8 9 11 13 15 16 17 18 19 19 19 21 22 22 22 23 23 24 24 23 22 21 19 17 16 14 12
7 7 7 7 7 6 6 6 6 7 8 8 10 11 13 14 15 16 17 18 18 18 19 21 21 22 23 23 24 23 22 21 21 20 19 18 17 15
10 9 8 7 7 7 6 7 7 8 8 9 10 11 13 14 15 16 16 17 17 17 18 20 21 22 22 23 23 23 23 22 22 22 21 21 20 18
11 10 9 8 8 7 8 8 8 8 9 10 11 12 13 14 15 15 16 16 16 16 17 19 20 21 21 23 23 23 23 24 24 23 23 22 22 21
11 10 9 9 8 8 8 8 9 9 9 10 11 12 13 14 15 15 15 15 15 16 16 18 19 20 21 22 23 23 23 23 24 24 24 24 24 24
10 10 9 9 9 9 9 9 10 10 11 12 12 13 13 14 15 14 15 15 15 16 16 17 18 19 21 22 22 22 22 23 23 24 24 24 24 24
10 10 10 9 9 10 10 10 11 12 12 13 13 13 13 14 14 14 14 14 15 16 16 17 18 19 20 21 22 22 22 22 22 22 23 23 23 23
10 10 10 10 10 10 10 11 12 13 13 13 13 13 13 14 14 14 14 14 15 15 16 16 17 17 18 20 21 21 21 22 22 22 22 22 21 21
Wind_Direction
278 277 278 279 278 278 279 280 281 281 282 283 284 284 285 286 286 287 288 288 289 289 290 290 290 290 290 290 289 288 288 287 286 285 284 282 281 280
277 277 278 279 279 280 280 280 280 281 281 282 283 284 285 286 287 287 288 289 290 291 291 291 291 291 291 289 288 288 287 286 286 285 284 284 283 282
276 276 276 277 278 279 280 279 280 281 281 283 284 284 285 286 287 288 289 290 291 291 292 293 293 292 290 289 288 287 286 286 285 285 285 284 283 282
276 276 277 278 278 278 279 279 280 281 283 284 285 285 286 287 288 289 290 291 292 293 294 294 293 292 291 290 289 288 287 287 286 286 285 285 285 284
279 278 279 278 278 279 279 280 282 283 284 284 285 286 288 289 290 290 291 292 293 294 294 293 292 292 291 290 290 289 289 288 288 288 287 287 286 285
278 277 278 279 279 279 280 282 283 284 285 286 287 288 290 291 292 293 293 294 295 295 295 293 292 292 291 292 292 291 290 290 290 290 289 288 287 286
278 278 279 279 280 281 282 283 285 286 286 287 289 290 292 292 293 294 294 295 296 296 295 294 294 294 294 294 293 293 292 293 293 292 291 290 289 287
280 280 280 282 283 284 285 286 286 287 288 289 291 292 292 293 294 295 296 296 296 296 296 296 296 297 297 296 296 296 296 296 296 295 294 292 290 288
283 283 283 283 284 285 286 287 288 289 290 291 291 292 293 295 296 297 298 298 297 297 298 298 299 300 299 300 300 300 300 300 299 298 296 295 292 289
285 285 285 286 287 287 288 289 290 290 290 291 292 293 295 298 299 300 300 301 301 302 302 303 304 304 304 305 306 306 306 305 304 302 300 298 296 292
287 287 287 288 288 289 289 289 290 290 291 292 293 297 299 300 301 303 305 306 307 308 309 310 310 311 310 310 311 311 311 310 308 308 307 304 301 296
290 289 290 290 290 288 288 287 288 289 292 296 299 301 302 305 308 311 313 314 315 316 317 318 318 318 317 316 317 317 317 316 315 315 314 312 308 302
293 293 292 291 290 288 289 290 292 294 297 301 306 309 313 317 322 325 325 325 326 327 328 328 328 327 327 327 327 327 327 327 325 324 323 321 318 312
299 299 298 298 297 296 297 298 300 303 309 316 322 326 330 333 334 335 336 336 336 337 338 339 339 339 339 340 339 339 338 338 338 338 338 338 336 330
318 317 319 321 326 332 332 335 339 341 341 341 341 342 344 346 346 344 343 344 344 345 347 348 349 349 350 350 351 351 352 352 353 355 358 359 1 1
31 34 34 29 30 27 23 19 15 6 1 358 356 355 355 355 353 351 350 351 351 351 353 355 357 358 359 360 0 1 4 7 10 13 16 20 24 29
68 66 59 53 53 50 44 37 26 16 14 14 10 5 2 360 359 357 354 355 356 357 359 2 4 5 6 7 9 12 15 18 23 28 33 36 40 43
71 69 67 64 60 56 53 48 41 32 28 23 16 10 7 5 4 2 0 2 3 4 7 9 11 13 15 17 20 24 28 32 37 40 43 45 46 49
68 65 64 63 62 55 52 49 42 35 30 22 17 12 10 9 10 8 7 9 11 12 14 16 17 20 23 26 30 34 38 42 45 47 49 50 52 54
61 59 59 61 60 55 53 49 42 35 28 22 18 17 16 15 14 13 13 15 19 21 22 22 25 28 31 34 37 40 44 47 49 50 52 55 56 58
60 57 56 57 57 56 55 49 38 31 26 21 19 19 19 19 19 19 20 23 27 28 29 31 35 37 39 39 42 44 48 51 53 54 56 56 56 58
56 54 54 55 57 55 50 40 31 26 22 21 21 21 23 24 23 24 26 29 32 34 36 38 41 42 43 44 46 48 51 53 55 55 55 56 56 57
52 50 52 55 54 48 41 32 26 23 23 24 24 24 26 27 28 30 33 35 38 39 41 43 45 46 47 47 48 50 52 54 55 55 54 55 57 58
Height
5793 5791 5789 5787 5784 5782 5779 5776 5773 5769 5764 5760 5757 5753 5749 5744 5739 5734 5729 5724 5718 5712 5706 5700 5694 5688 5682 5676 5670 5665 5660 5655 5650 5646 5642 5639 5635 5632
5781 5779 5777 5774 5772 5769 5766 5762 5759 5755 5750 5745 5741 5737 5732 5728 5723 5718 5713 5708 5702 5696 5689 5683 5677 5671 5665 5659 5654 5648 5644 5639 5635 5631 5627 5623 5619 5616
5769 5766 5763 5761 5758 5755 5751 5748 5744 5740 5735 5729 5725 5720 5716 5711 5706 5702 5696 5691 5685 5680 5674 5667 5661 5655 5649 5644 5639 5634 5629 5625 5621 5617 5613 5609 5604 5601
5755 5752 5750 5747 5744 5740 5736 5732 5728 5724 5719 5714 5708 5704 5700 5695 5691 5686 5680 5675 5669 5664 5658 5652 5646 5641 5635 5630 5625 5621 5616 5612 5608 5603 5599 5594 5590 5586
5741 5738 5735 5731 5728 5724 5720 5716 5712 5707 5702 5697 5692 5687 5683 5679 5675 5670 5665 5659 5654 5648 5644 5639 5633 5628 5623 5618 5613 5609 5604 5599 5594 5590 5585 5580 5576 5571
5726 5723 5719 5715 5712 5708 5704 5700 5696 5691 5686 5682 5677 5673 5669 5665 5660 5656 5651 5645 5640 5635 5630 5625 5621 5616 5611 5607 5602 5597 5592 5587 5581 5576 5571 5567 5562 5558
5710 5707 5703 5699 5695 5691 5688 5684 5679 5675 5671 5667 5663 5659 5655 5651 5646 5642 5638 5632 5627 5623 5618 5614 5609 5605 5600 5595 5590 5585 5580 5574 5568 5563 5558 5553 5548 5544
5694 5690 5686 5682 5678 5675 5671 5667 5664 5661 5657 5653 5650 5646 5642 5638 5634 5630 5626 5622 5617 5613 5609 5604 5599 5594 5589 5584 5579 5573 5567 5562 5556 5550 5545 5540 5535 5531
5677 5673 5669 5665 5662 5659 5656 5653 5651 5648 5645 5642 5638 5635 5631 5628 5624 5620 5616 5612 5608 5605 5600 5596 5590 5585 5579 5574 5568 5563 5556 5550 5544 5538 5532 5527 5522 5518
5660 5656 5653 5649 5647 5644 5642 5641 5639 5637 5634 5632 5629 5626 5623 5620 5616 5613 5609 5605 5601 5597 5593 5588 5582 5576 5570 5564 5558 5552 5546 5539 5533 5527 5521 5516 5510 5506
5646 5642 5639 5636 5634 5632 5631 5630 5629 5628 5626 5624 5621 5619 5616 5613 5610 5607 5603 5599 5595 5590 5585 5580 5574 5568 5562 5555 5549 5543 5537 5530 5524 5518 5511 5506 5500 5496
5633 5629 5627 5625 5624 5623 5623 5622 5621 5621 5619 5618 5616 5614 5612 5609 5606 5602 5598 5594 5589 5585 5579 5574 5568 5562 5557 5550 5543 5536 5529 5523 5516 5510 5504 5498 5493 5488
5623 5620 5619 5618 5617 5616 5616 5616 5616 5615 5615 5614 5612 5610 5608 5606 5602 5598 5594 5590 5585 5580 5575 5569 5563 5557 5551 5545 5538 5531 5524 5517 5510 5504 5498 5492 5487 5484
5616 5615 5614 5613 5613 5613 5613 5612 5612 5612 5612 5611 5610 5608 5606 5603 5599 5596 5591 5587 5582 5576 5571 5566 5560 5554 5547 5541 5535 5528 5521 5514 5507 5500 5494 5489 5485 5481
5614 5613 5612 5612 5612 5612 5611 5611 5611 5611 5611 5610 5609 5607 5604 5601 5597 5593 5589 5584 5580 5574 5569 5563 5558 5551 5545 5539 5532 5526 5519 5512 5505 5499 5494 5489 5485 5481
5614 5613 5613 5613 5613 5612 5612 5612 5612 5611 5611 5609 5608 5606 5603 5599 5596 5592 5588 5583 5578 5574 5568 5563 5557 5551 5545 5538 5532 5525 5519 5512 5506 5500 5495 5491 5486 5483
5616 5615 5615 5615 5615 5614 5614 5614 5613 5612 5611 5610 5608 5605 5602 5599 5595 5591 5587 5582 5578 5573 5568 5563 5557 5551 5545 5539 5533 5526 5520 5514 5508 5503 5498 5494 5490 5487
5619 5618 5618 5618 5617 5617 5616 5615 5615 5613 5612 5610 5608 5605 5602 5599 5595 5591 5587 5582 5578 5574 5569 5564 5558 5553 5547 5542 5535 5529 5523 5518 5513 5508 5503 5499 5495 5492
5623 5622 5621 5621 5620 5619 5618 5617 5616 5614 5612 5610 5608 5605 5602 5598 5595 5591 5587 5583 5579 5574 5570 5565 5560 5555 5550 5545 5539 5533 5528 5523 5518 5514 5509 5505 5501 5498
5626 5625 5624 5623 5622 5621 5620 5619 5617 5615 5613 5611 5608 5605 5602 5598 5595 5591 5587 5583 5579 5576 5572 5567 5563 5558 5553 5549 5543 5538 5534 5529 5525 5520 5516 5512 5509 5506
5630 5629 5627 5626 5624 5623 5622 5620 5618 5616 5614 5611 5608 5605 5602 5599 5595 5592 5588 5584 5581 5577 5573 5569 5565 5561 5557 5553 5548 5544 5539 5535 5531 5527 5524 5520 5517 5513
5633 5631 5630 5628 5627 5625 5624 5622 5620 5617 5614 5612 5609 5606 5603 5599 5596 5593 5589 5586 5583 5579 5576 5572 5568 5565 5561 5557 5553 5549 5545 5542 5538 5534 5531 5528 5525 5521
5636 5634 5632 5631 5629 5627 5625 5623 5621 5618 5615 5612 5609 5606 5603 5600 5597 5594 5591 5588 5585 5581 5578 5575 5572 5568 5565 5562 5558 5555 5551 5548 5544 5541 5538 5535 5532 5529